(150771) = 2001 QX236

Discovered at Socorro on 2001-08-24 by LINEAR.

Orbit

Orbit type: Main Belt

Note: WebGL enabled browser required.

epoch2023-09-13.0
epoch JD2460200.5
perihelion date2023-07-18.40508
perihelion JD2460143.90508
argument of perihelion (°)340.10182
ascending node (°)334.92142
inclination (°)5.02402
eccentricity0.1153003
perihelion distance (AU)2.1149199
Tisserand w.r.t. Jupiter3.5
ΔV w.r.t. Earth (km/sec)9.2
semimajor axis (AU)2.3905510
mean anomaly (°)15.09156
mean daily motion (°/day)0.26665940
aphelion distance (AU)2.666
period (years)3.7
P-vector [x]0.70794787
P-vector [y]-0.63555193
P-vector [z]-0.30803174
Q-vector [x]0.70528859
Q-vector [y]0.61326396
Q-vector [z]0.35563369
absolute magnitude16.52
phase slope0.15
uncertainty0
referenceMPEC 2024-A55
observations used597
oppositions15
arc length (days)8170
first opposition used2001
last opposition used2023
residual rms (arc-secs)0.70
perturbers coarse indicatorM-v
perturbers precise indicator003Ek
first observation date used2001-08-16.0
last observation date used2023-12-29.0
computer nameMPCLINUX
JD of orbit computation2456731.430212
perihelion JD uncertainty (days)6.4149E-05
argument of perihelion uncertainty (°)3.7493E-05
ascending node uncertainty (°)3.4224E-05
inclination uncertainty (°)4.9494E-06
eccentricity uncertainty 5.7863E-08
perihelion distance uncertainty (AU)1.4023E-07
Minimum Orbit Intersection Distances (in AU)
for orbit epoch: 2460200.5, reference: E2023-YA3
Mercury1.68244
Venus1.38693
Earth1.10153
Mars0.71789
Jupiter2.57502
Saturn6.45419
Uranus15.8111
Neptune27.4684

Observations

612 total observations over interval: 2001 08 16.33508 – 2023 12 29.228770
These data are available for download (format description).

Date (UT) J2000 RA J2000 Dec Magn Location Ref
2001 08 16.33508 00 19 49.58 +04 05 48.7 19.3   704 – Lincoln Laboratory ETS, New Mexico MPS 37866
2001 08 16.34709 00 19 49.36 +04 05 51.2 20.0   704 – Lincoln Laboratory ETS, New Mexico MPS 37866
2001 08 16.38322 00 19 48.51 +04 05 55.9 20.3   704 – Lincoln Laboratory ETS, New Mexico MPS 37866
2001 08 24.36192 00 16 28.62 +04 14 18.0 19.8   704 – Lincoln Laboratory ETS, New Mexico MPS 34881
2001 08 24.37501 00 16 28.12 +04 14 18.5 20.1   704 – Lincoln Laboratory ETS, New Mexico MPS 34881
2001 08 24.38812 00 16 27.70 +04 14 18.8 19.3   704 – Lincoln Laboratory ETS, New Mexico MPS 34881
2001 08 24.40126 00 16 27.22 +04 14 18.8 20.1   704 – Lincoln Laboratory ETS, New Mexico MPS 34881
2001 08 27.33814 00 14 45.44 +04 14 29.6 19.2 R 699 – Lowell Observatory-LONEOS MPS 34881
2001 08 27.35774 00 14 44.61 +04 14 29.5   699 – Lowell Observatory-LONEOS MPS 34881
2001 08 27.37734 00 14 43.92 +04 14 29.1   699 – Lowell Observatory-LONEOS MPS 34881
2001 08 27.39696 00 14 43.06 +04 14 29.9   699 – Lowell Observatory-LONEOS MPS 34881
2001 09 12.26325 00 02 02.07 +03 50 56.5 19.3 V 691 – Steward Observatory, Kitt Peak-Spacewatch MPS 34881
2001 09 12.28444 00 02 00.80 +03 50 53.3 19.2 V 691 – Steward Observatory, Kitt Peak-Spacewatch MPS 34881
2001 09 12.30609 00 01 59.53 +03 50 50.0 19.2 V 691 – Steward Observatory, Kitt Peak-Spacewatch MPS 34881
2001 09 16.39079 23 58 04.67 +03 39 15.5 20.0   704 – Lincoln Laboratory ETS, New Mexico MPS 36127
2001 09 16.40514 23 58 03.81 +03 39 13.1 19.7   704 – Lincoln Laboratory ETS, New Mexico MPS 36127
2001 09 16.41967 23 58 02.94 +03 39 12.1 19.8   704 – Lincoln Laboratory ETS, New Mexico MPS 36127
2001 09 20.25416 23 54 18.13 +03 26 54.9 18.5   704 – Lincoln Laboratory ETS, New Mexico MPS 36127
2001 09 20.26832 23 54 17.26 +03 26 51.8 18.4   704 – Lincoln Laboratory ETS, New Mexico MPS 36127
2001 09 20.28247 23 54 16.39 +03 26 49.2 18.6   704 – Lincoln Laboratory ETS, New Mexico MPS 36127
2001 09 20.29661 23 54 15.53 +03 26 46.2 18.6   704 – Lincoln Laboratory ETS, New Mexico MPS 36127
2001 09 20.31075 23 54 14.69 +03 26 43.2 18.6   704 – Lincoln Laboratory ETS, New Mexico MPS 36127
2001 09 21.31548 23 53 15.57 +03 23 20.3 18.8   644 – Palomar Mountain/NEAT MPS 36127
2001 09 21.33684 23 53 14.25 +03 23 15.8 18.6   644 – Palomar Mountain/NEAT MPS 36127
2001 09 21.35835 23 53 12.93 +03 23 11.5 18.7   644 – Palomar Mountain/NEAT MPS 36127
2001 09 22.25576 23 52 20.44 +03 20 09.3 19.3 R 683 – Goodricke-Pigott Observatory, Tucson MPS 37866
2001 09 22.25785 23 52 20.26 +03 20 06.6 18.3   704 – Lincoln Laboratory ETS, New Mexico MPS 36127
2001 09 22.26694 23 52 19.75 +03 20 05.0 19.1 R 683 – Goodricke-Pigott Observatory, Tucson MPS 37866
2001 09 22.27202 23 52 19.37 +03 20 03.9 18.9   704 – Lincoln Laboratory ETS, New Mexico MPS 36127
2001 09 22.28034 23 52 18.89 +03 20 02.5 19.1 R 683 – Goodricke-Pigott Observatory, Tucson MPS 37866
2001 09 22.28619 23 52 18.50 +03 20 00.9 18.8   704 – Lincoln Laboratory ETS, New Mexico MPS 36127
2001 09 22.30038 23 52 17.66 +03 19 58.1 18.7   704 – Lincoln Laboratory ETS, New Mexico MPS 36127
2001 09 23.25169 23 51 22.20 +03 16 39.5 19.4 R 683 – Goodricke-Pigott Observatory, Tucson MPS 37866
2001 09 23.25457 23 51 21.92 +03 16 40.0 18.2   704 – Lincoln Laboratory ETS, New Mexico MPS 43720
2001 09 23.26495 23 51 21.34 +03 16 38.8 19.5 R 683 – Goodricke-Pigott Observatory, Tucson MPS 37866
2001 09 23.26872 23 51 21.05 +03 16 37.1 18.3   704 – Lincoln Laboratory ETS, New Mexico MPS 43720
2001 09 23.27835 23 51 20.67 +03 16 37.9 19.5 R 683 – Goodricke-Pigott Observatory, Tucson MPS 37866
2001 09 23.28287 23 51 20.20 +03 16 34.1 18.7   704 – Lincoln Laboratory ETS, New Mexico MPS 43720
2001 09 23.29704 23 51 19.34 +03 16 31.3 18.3   704 – Lincoln Laboratory ETS, New Mexico MPS 43720
2001 09 23.31120 23 51 18.47 +03 16 27.9 18.5   704 – Lincoln Laboratory ETS, New Mexico MPS 43720
2001 09 24.24959 23 50 24.05 +03 13 12.5 19.2   704 – Lincoln Laboratory ETS, New Mexico MPS 43720
2001 09 24.26443 23 50 23.11 +03 13 08.8 19.1   704 – Lincoln Laboratory ETS, New Mexico MPS 43720
2001 09 24.27925 23 50 22.22 +03 13 05.8 18.9   704 – Lincoln Laboratory ETS, New Mexico MPS 43720
2001 09 24.29407 23 50 21.30 +03 13 02.3 19.3   704 – Lincoln Laboratory ETS, New Mexico MPS 43720
2001 09 24.30903 23 50 20.42 +03 12 58.5 19.4   704 – Lincoln Laboratory ETS, New Mexico MPS 43720
2001 09 26.21937 23 48 30.60 +03 06 13.9 19.2 R 699 – Lowell Observatory-LONEOS MPS 36127
2001 09 26.24124 23 48 29.25 +03 06 09.6   699 – Lowell Observatory-LONEOS MPS 36127
2001 09 26.26317 23 48 27.92 +03 06 05.5   699 – Lowell Observatory-LONEOS MPS 36127
2001 09 26.28518 23 48 26.62 +03 06 00.2   699 – Lowell Observatory-LONEOS MPS 36127
2001 10 14.17139 23 34 00.18 +02 07 23.5 19.1   704 – Lincoln Laboratory ETS, New Mexico MPS 37866
2001 10 14.18711 23 33 59.53 +02 07 20.9 19.5   704 – Lincoln Laboratory ETS, New Mexico MPS 37866
2001 10 14.20284 23 33 58.99 +02 07 19.1 19.3   704 – Lincoln Laboratory ETS, New Mexico MPS 37866
2001 10 14.21859 23 33 58.35 +02 07 16.7 19.9   704 – Lincoln Laboratory ETS, New Mexico MPS 37866
2001 10 14.23436 23 33 57.70 +02 07 14.1 19.9   704 – Lincoln Laboratory ETS, New Mexico MPS 37866
2001 10 16.25678 23 32 47.41 +02 02 05.5 19.5   704 – Lincoln Laboratory ETS, New Mexico MPS 37866
2001 10 16.28823 23 32 46.20 +02 02 00.4 19.6   704 – Lincoln Laboratory ETS, New Mexico MPS 37866
2001 10 16.30397 23 32 45.65 +02 01 59.0 19.7   704 – Lincoln Laboratory ETS, New Mexico MPS 37866
2001 10 19.22032 23 31 17.21 +01 55 24.0 19.5   644 – Palomar Mountain/NEAT MPS 43720
2001 10 19.24081 23 31 16.58 +01 55 21.4 19.4   644 – Palomar Mountain/NEAT MPS 43720
2001 10 19.26161 23 31 15.94 +01 55 19.1 19.8   644 – Palomar Mountain/NEAT MPS 43720
2001 10 23.17814 23 29 41.26 +01 48 16.9 18.9 R 699 – Lowell Observatory-LONEOS MPS 40334
2001 10 23.20178 23 29 40.77 +01 48 13.9   699 – Lowell Observatory-LONEOS MPS 40334
2001 10 23.22518 23 29 40.31 +01 48 13.6   699 – Lowell Observatory-LONEOS MPS 40334
2001 10 23.24861 23 29 39.69 +01 48 13.4   699 – Lowell Observatory-LONEOS MPS 40334
2003 01 29.169800 08 22 28.634 +23 33 32.07 20.19 V 645 – Apache Point-Sloan Digital Sky Survey MPS 155194
2003 01 29.173272 08 22 28.393 +23 33 32.46 20.96   645 – Apache Point-Sloan Digital Sky Survey MPS 155194
2004 05 22.26265 15 16 28.70 -27 17 35.0 19.8   704 – Lincoln Laboratory ETS, New Mexico MPS 149249
2004 05 22.28110 15 16 27.50 -27 17 29.4 19.5   704 – Lincoln Laboratory ETS, New Mexico MPS 149249
2004 05 22.29038 15 16 26.86 -27 17 28.9 19.5   704 – Lincoln Laboratory ETS, New Mexico MPS 149249
2005 10 08.32001 03 11 26.92 +25 11 43.4 19.4   704 – Lincoln Laboratory ETS, New Mexico MPS 149249
2005 10 08.34215 03 11 26.05 +25 11 45.6 19.7   704 – Lincoln Laboratory ETS, New Mexico MPS 149249
2005 10 08.35315 03 11 25.67 +25 11 46.9 19.5   704 – Lincoln Laboratory ETS, New Mexico MPS 149249
2005 10 25.29913 02 57 14.46 +25 01 41.8 19.6 R 699 – Lowell Observatory-LONEOS MPS 149249
2005 10 25.32111 02 57 13.15 +25 01 41.7   699 – Lowell Observatory-LONEOS MPS 149249
2005 10 25.34307 02 57 11.77 +25 01 38.3   699 – Lowell Observatory-LONEOS MPS 149249
2005 10 25.36505 02 57 10.21 +25 01 34.3   699 – Lowell Observatory-LONEOS MPS 149249
2005 10 29.37211 02 52 58.15 +24 51 38.6 19.2 V 703 – Catalina Sky Survey MPS 155194
2005 10 29.38259 02 52 57.25 +24 51 36.5 19.0 V 703 – Catalina Sky Survey MPS 155194
2005 10 29.41490 02 52 55.23 +24 51 30.6 19.4 V 703 – Catalina Sky Survey MPS 149249
2005 10 29.42116 02 52 54.76 +24 51 29.5 19.5 V 703 – Catalina Sky Survey MPS 149249
2005 10 29.42747 02 52 54.40 +24 51 28.4 19.3 V 703 – Catalina Sky Survey MPS 149249
2005 10 29.43390 02 52 53.94 +24 51 27.8 19.5 V 703 – Catalina Sky Survey MPS 149249
2005 10 30.26501 02 52 00.78 +24 49 03.6 19.8   704 – Lincoln Laboratory ETS, New Mexico MPS 149249
2005 10 30.27713 02 51 59.92 +24 49 01.2 20.0   704 – Lincoln Laboratory ETS, New Mexico MPS 149249
2005 10 30.28906 02 51 59.08 +24 48 59.2 19.7   704 – Lincoln Laboratory ETS, New Mexico MPS 149249
2005 10 30.30100 02 51 58.33 +24 48 56.4 19.5   704 – Lincoln Laboratory ETS, New Mexico MPS 149249
